Location: High Cliff State Park
(44.1557°N, 88.2948°W)
Time: 12:44:25
(UTC-05:00)

Amateur Radio Satellites - All Passes

Search period start: 28 March 2015 12:14
Search period end: 29 March 2015 12:14
Location: High Cliff State Park, 44.1557°N, 88.2948°W

Satellite Date Start Highest point End Downlink Frequencies (MHz)
Time Altitude Azimuth
AIST 2 28 Mar 12:21:25 12:25:39 62° 307° (NW) 12:29:56 435.215
PHONESAT 2.4 28 Mar 12:30:21 12:32:02 13° 209° (SSW) 12:33:39 2401.200-2431.200
ITAMSAT 1 28 Mar 12:37:18 12:38:45 11° 56° (ENE) 12:40:28 435.822/435.867
FUNcube-1 28 Mar 12:37:45 12:39:52 13° 297° (WNW) 12:41:48 145.935
UWE-3 28 Mar 12:39:43 12:40:44 11° 299° (WNW) 12:41:32 435.000/436.395/437.385
VELOX 1 28 Mar 12:41:40 12:45:35 31° 292° (WNW) 12:49:26 145.980
CUBEBUG 1 28 Mar 12:45:06 12:49:23 57° 287° (WNW) 12:53:36 437.445
AISAT 28 Mar 12:45:54 12:49:41 28° 292° (WNW) 12:53:23 437.250
TISAT 1 28 Mar 12:53:19 12:57:15 39° 97° (E) 13:01:12 437.305
BEESAT 2 28 Mar 12:57:11 12:59:48 16° 324° (NW) 13:02:19 435.950
SPROUT 28 Mar 12:58:57 13:03:10 54° 100° (E) 13:07:22 437.525
YUBILEINY 28 Mar 13:06:39 13:13:59 32° 84° (E) 13:21:34 435.215
SWISSCUBE 28 Mar 13:07:56 13:08:22 10° 85° (E) 13:09:08 437.505
Oscar 19 28 Mar 13:09:36 13:14:35 58° 72° (ENE) 13:19:39 437.125/150
ESTCUBE 1 28 Mar 13:11:08 13:15:07 30° 292° (WNW) 13:19:00 437.505/2401.250
BEESAT 28 Mar 13:11:16 13:11:33 10° 85° (E) 13:12:10 436.000
50 SAT 28 Mar 13:15:59 13:17:40 12° 297° (WNW) 13:19:11 437.505
Gurwin Techsat 1B 28 Mar 13:16:35 13:20:20 20° 62° (ENE) 13:24:14 435.225
O/OREOS (USA 219) 28 Mar 13:39:12 13:43:23 34° 58° (ENE) 13:47:32 437.305
ITUPSAT 1 28 Mar 13:54:14 13:58:21 28° 94° (E) 14:02:29 437.325
AO-7 28 Mar 14:00:14 14:05:53 22° 50° (NE) 14:11:48 29.400- 29.500
AIST 2 28 Mar 14:03:17 14:05:10 12° 329° (NNW) 14:06:55 435.215
ITAMSAT 1 28 Mar 14:12:15 14:17:28 74° 74° (ENE) 14:22:42 435.822/435.867
PCSat 28 Mar 14:29:04 14:33:22 25° 109° (ESE) 14:37:48 145.827
TISAT 1 28 Mar 14:29:42 14:32:51 20° 294° (WNW) 14:35:52 437.305
SPROUT 28 Mar 14:36:15 14:38:53 16° 296° (WNW) 14:41:23 437.525
SWISSCUBE 28 Mar 14:42:13 14:47:03 89° 285° (WNW) 14:51:50 437.505
BEESAT 28 Mar 14:45:23 14:50:13 90° 241° (WSW) 14:55:01 436.000
HORYU 2 28 Mar 14:48:05 14:51:54 30° 68° (ENE) 14:55:48 437.375
Oscar 19 28 Mar 14:50:50 14:54:25 18° 270° (W) 14:57:50 437.125/150
Gurwin Techsat 1B 28 Mar 14:54:39 14:59:54 61° 259° (W) 15:05:12 435.225
YUBILEINY 28 Mar 15:01:41 15:10:23 60° 284° (WNW) 15:19:07 435.215
JAS-2 28 Mar 15:07:26 15:13:27 33° 61° (ENE) 15:20:06 435.910
KKS-1 28 Mar 15:11:57 15:15:59 33° 96° (E) 15:20:03 437.445
O/OREOS (USA 219) 28 Mar 15:18:52 15:22:41 26° 256° (WSW) 15:26:25 437.305
AIST 1 28 Mar 15:19:51 15:24:03 48° 77° (ENE) 15:28:12
ITUPSAT 1 28 Mar 15:31:57 15:36:18 34° 292° (WNW) 15:40:35 437.325
STARS 28 Mar 15:46:24 15:50:41 50° 100° (E) 15:54:59 437.465
AO-7 28 Mar 15:49:19 15:57:37 81° 69° (ENE) 16:05:57 29.400- 29.500
ITAMSAT 1 28 Mar 15:54:36 15:57:37 15° 272° (W) 16:00:24 435.822/435.867
PCSat 28 Mar 16:11:13 16:16:30 52° 307° (NW) 16:21:50 145.827
SWISSCUBE 28 Mar 16:22:17 16:24:15 12° 301° (WNW) 16:26:00 437.505
HORYU 2 28 Mar 16:24:41 16:28:33 28° 265° (W) 16:32:24 437.375
BEESAT 28 Mar 16:25:25 16:27:25 12° 301° (WNW) 16:29:12 436.000
Cubesat XI-IV 28 Mar 16:29:48 16:31:01 11° 56° (NE) 16:32:31 437.490
CUTE-I 28 Mar 16:30:02 16:31:09 11° 56° (NE) 16:32:33 437.470
MOZHAYETS 4 28 Mar 16:39:47 16:42:59 19° 90° (E) 16:46:18
KKS-1 28 Mar 16:48:50 16:52:32 25° 293° (WNW) 16:56:08 437.445
JAS-2 28 Mar 16:51:20 16:58:05 57° 262° (W) 17:05:36 435.910
AIST 1 28 Mar 16:58:45 17:01:21 15° 274° (W) 17:03:45
YUBILEINY 28 Mar 17:05:32 17:09:40 13° 310° (NW) 17:13:15 435.215
RS-15 28 Mar 17:17:37 17:18:36 10° 96° (E) 17:20:45 29.354- 29.394
STARS 28 Mar 17:23:49 17:26:50 18° 296° (WNW) 17:29:44 437.465
AO-7 28 Mar 17:45:05 17:51:27 23° 270° (W) 17:57:30 29.400- 29.500
BEESAT 2 28 Mar 17:58:17 18:00:29 14° 35° (NE) 18:02:46 435.950
PCSat 28 Mar 17:58:52 18:01:19 13° 330° (NNW) 18:03:37 145.827
AUBIESAT-1 28 Mar 17:58:53 18:03:20 35° 101° (E) 18:07:43 437.475
Cubesat XI-IV 28 Mar 18:04:56 18:10:15 69° 73° (ENE) 18:15:37 437.490
CUTE-I 28 Mar 18:05:03 18:10:22 68° 73° (ENE) 18:15:43 437.470
MOZHAYETS 4 28 Mar 18:16:02 18:20:32 49° 288° (WNW) 18:25:00
M-CUBED/EXP-1 PRIME 28 Mar 18:22:14 18:27:05 67° 106° (ESE) 18:31:52 437.505
CUBESAT XI-V 28 Mar 18:24:09 18:27:13 18° 90° (E) 18:30:25 437.345
BEESAT 3 28 Mar 18:35:43 18:39:19 28° 44° (NE) 18:42:54 437.485
HO-68 28 Mar 18:45:31 18:49:35 17° 51° (NE) 18:53:56 435.675
STRAND 1 28 Mar 18:48:16 18:51:34 18° 89° (E) 18:55:03 437.568
AIST 2 28 Mar 19:04:02 19:07:13 20° 39° (NE) 19:10:27 435.215
RS-15 28 Mar 19:18:15 19:28:43 58° 115° (ESE) 19:39:27 29.354- 29.394
GONETS M04 28 Mar 19:19:14 19:27:23 48° 89° (E) 19:35:41
CUTE 1.7 + AOD 2 28 Mar 19:28:20 19:29:54 12° 62° (ENE) 19:31:40 437.475
SO-50 28 Mar 19:30:28 19:35:03 65° 121° (ESE) 19:39:49 436.795
AUBIESAT-1 28 Mar 19:33:47 19:38:02 31° 298° (WNW) 19:42:12 437.475
BEESAT 2 28 Mar 19:35:10 19:39:20 83° 54° (NE) 19:43:26 435.950
PRISM 28 Mar 19:36:10 19:40:23 76° 103° (ESE) 19:44:31 437.425
BRITE-PL 28 Mar 19:38:38 19:42:37 29° 70° (ENE) 19:46:27 437.365/2234.400
Cubesat XI-IV 28 Mar 19:47:27 19:50:57 17° 271° (W) 19:54:14 437.490
CUTE-I 28 Mar 19:47:31 19:51:02 17° 271° (W) 19:54:20 437.470
AAUSAT CUBESAT 2 28 Mar 19:55:41 19:57:48 14° 63° (ENE) 20:00:05 437.432
SEEDS 28 Mar 19:57:17 20:00:18 20° 66° (ENE) 20:03:28 437.485
M-CUBED/EXP-1 PRIME 28 Mar 19:58:08 20:01:30 19° 303° (WNW) 20:04:43 437.505
CUBESAT XI-V 28 Mar 20:00:31 20:05:01 50° 288° (WNW) 20:09:28 437.345
CINEMA 3 28 Mar 20:10:40 20:12:44 14° 64° (ENE) 20:14:57 145.822/145.860
BEESAT 3 28 Mar 20:13:41 20:17:26 34° 243° (WSW) 20:21:05 437.485
Oscar 11 28 Mar 20:15:10 20:16:38 12° 61° (ENE) 20:18:17 145.826/435.025
COMPASS 1 28 Mar 20:20:27 20:24:01 28° 69° (ENE) 20:27:39 437.405
DOVE 4 28 Mar 20:22:46 20:26:40 34° 71° (ENE) 20:30:30 437.250
STRAND 1 28 Mar 20:26:13 20:31:16 60° 288° (WNW) 20:36:16 437.568
CUBEBUG 2 28 Mar 20:29:05 20:30:32 12° 62° (ENE) 20:32:11 437.445
HO-68 28 Mar 20:29:07 20:36:15 74° 71° (ENE) 20:43:27 435.675
GOMX 1 28 Mar 20:29:22 20:33:48 61° 74° (ENE) 20:38:01 467.674
AIST 2 28 Mar 20:42:00 20:46:12 59° 239° (WSW) 20:50:19 435.215
CANX-2 28 Mar 20:46:58 20:51:13 86° 72° (ENE) 20:55:30 2200.000
DANDE 28 Mar 20:59:02 21:01:23 20° 97° (E) 21:03:32 436.750
CUTE 1.7 + AOD 2 28 Mar 21:01:05 21:05:18 74° 258° (WSW) 21:09:35 437.475
SO-50 28 Mar 21:12:18 21:16:03 23° 322° (NW) 21:19:51 436.795
PRISM 28 Mar 21:13:48 21:15:19 12° 299° (WNW) 21:16:39 437.425
DELFI C3 28 Mar 21:14:00 21:17:40 33° 70° (ENE) 21:21:23 145.870
BEESAT 2 28 Mar 21:16:20 21:16:54 10° 251° (WSW) 21:17:15 435.950
GONETS M04 28 Mar 21:16:22 21:24:27 40° 291° (WNW) 21:32:31
BRITE-PL 28 Mar 21:16:59 21:21:10 30° 264° (W) 21:25:03 437.365/2234.400
UKube-1 28 Mar 21:19:13 21:22:32 22° 66° (ENE) 21:25:58 .
DX 1 28 Mar 21:27:52 21:31:35 28° 68° (ENE) 21:35:22 434.975-435.025
AAUSAT CUBESAT 2 28 Mar 21:28:54 21:33:01 60° 260° (W) 21:37:11 437.432
RS-15 28 Mar 21:30:54 21:41:26 50° 320° (NW) 21:52:13 29.354- 29.394
SEEDS 28 Mar 21:31:55 21:35:53 39° 263° (W) 21:39:54 437.485
HUMSAT D 28 Mar 21:32:29 21:35:21 19° 66° (ENE) 21:38:20 437.325/437.525
CINEMA 3 28 Mar 21:45:25 21:49:34 58° 260° (W) 21:53:41 145.822/145.860
Oscar 11 28 Mar 21:47:55 21:52:14 79° 256° (WSW) 21:56:36 145.826/435.025
COMPASS 1 28 Mar 21:56:06 21:59:42 27° 266° (W) 22:03:16 437.405
FUNcube-1 28 Mar 21:57:05 22:01:11 66° 74° (ENE) 22:05:19 145.935
CUSAT 1 28 Mar 21:57:14 21:59:45 28° 284° (WNW) 22:02:05 437.405
UWE-3 28 Mar 21:59:13 22:03:22 88° 77° (ENE) 22:07:33 435.000/436.395/437.385
DOVE 4 28 Mar 22:01:10 22:04:36 22° 267° (W) 22:07:50 437.250
CUBEBUG 2 28 Mar 22:02:37 22:06:46 70° 258° (WSW) 22:10:55 437.445
VELOX 1 28 Mar 22:04:29 22:08:20 30° 68° (ENE) 22:12:14 145.980
CUBEBUG 1 28 Mar 22:08:17 22:10:54 16° 64° (ENE) 22:13:40 437.445
AISAT 28 Mar 22:08:40 22:12:38 34° 69° (ENE) 22:16:40 437.250
ZACube-1 28 Mar 22:09:36 22:13:45 88° 256° (WSW) 22:17:57 437.345
GOMX 1 28 Mar 22:10:10 22:12:23 13° 271° (W) 22:14:20 467.674
TIGRISAT 28 Mar 22:19:12 22:21:01 12° 88° (E) 22:23:06 435.000
HO-68 28 Mar 22:19:16 22:24:46 22° 270° (W) 22:30:01 435.675
50 SAT 28 Mar 22:26:47 22:30:32 47° 73° (ENE) 22:34:21 437.505
ESTCUBE 1 28 Mar 22:35:27 22:39:30 33° 69° (ENE) 22:43:36 437.505/2401.250
DANDE 28 Mar 22:43:42 22:44:41 11° 289° (WNW) 22:45:31 436.750
ANTELSAT 28 Mar 22:47:34 22:51:20 25° 94° (E) 22:55:14 437.575/2403.000
DELFI C3 28 Mar 22:49:47 22:52:57 21° 268° (W) 22:56:03 145.870
UKube-1 28 Mar 22:54:27 22:58:31 37° 262° (W) 23:02:34 .
QB50P1 28 Mar 22:55:53 22:58:13 15° 90° (E) 23:00:42 145.935-145.965
DUCHIFAT 1 28 Mar 22:58:08 23:00:32 15° 90° (E) 23:03:06 145.980
ISS 28 Mar 22:58:38 23:01:23 26° 138° (SE) 23:04:10 145.825
DX 1 28 Mar 23:03:58 23:07:49 29° 265° (W) 23:11:36 434.975-435.025
HUMSAT D 28 Mar 23:07:02 23:10:54 39° 262° (W) 23:14:47 437.325/437.525
QB50P2 28 Mar 23:09:45 23:12:59 21° 93° (E) 23:16:17 145.880/145.840
PCSat 28 Mar 23:14:27 23:19:16 32° 46° (NE) 23:24:06 145.827
YUBILEINY 28 Mar 23:14:42 23:19:57 17° 55° (NE) 23:25:36 435.215
FUNcube-1 28 Mar 23:36:50 23:38:06 11° 273° (W) 23:39:08 145.935
POPSAT HIP 1 28 Mar 23:38:09 23:42:10 41° 98° (E) 23:46:11 437.405
VELOX 1 28 Mar 23:41:01 23:44:54 28° 265° (W) 23:48:43 145.980
BUGSAT 1 28 Mar 23:41:34 23:45:10 31° 96° (E) 23:48:47 437.445
CUBEBUG 1 28 Mar 23:42:32 23:46:53 57° 260° (W) 23:51:14 437.445
UNISAT 6 28 Mar 23:43:09 23:47:45 89° 271° (W) 23:52:24 437.425
AISAT 28 Mar 23:45:37 23:49:19 25° 266° (W) 23:52:57 437.250
TISAT 1 28 Mar 23:47:07 23:50:58 36° 70° (ENE) 23:54:52 437.305
RS-15 28 Mar 23:48:25 23:57:21 26° 352° (N) 00:06:30 29.354- 29.394
NANOSAT C BR1 28 Mar 23:48:59 23:53:09 55° 100° (E) 23:57:17 145.865
POLYITAN 1 28 Mar 23:52:31 23:56:44 61° 101° (E) 00:00:57 437.675
TIGRISAT 28 Mar 23:53:48 23:58:20 72° 285° (WNW) 00:02:56 435.000
SPROUT 28 Mar 23:54:32 23:58:41 50° 73° (ENE) 00:02:52 437.525
50 SAT 29 Mar 00:03:39 00:05:48 14° 271° (W) 00:07:49 437.505
ESTCUBE 1 29 Mar 00:12:32 00:16:25 27° 266° (W) 00:20:16 437.505/2401.250
SWISSCUBE 29 Mar 00:14:47 00:17:38 16° 62° (ENE) 00:20:40 437.505
BEESAT 29 Mar 00:17:55 00:20:44 16° 62° (ENE) 00:23:43 436.000
ANTELSAT 29 Mar 00:24:02 00:28:12 35° 290° (WNW) 00:32:25 437.575/2403.000
QB50P1 29 Mar 00:30:21 00:34:28 52° 287° (WNW) 00:38:34 145.935-145.965
DUCHIFAT 1 29 Mar 00:32:38 00:36:43 50° 288° (WNW) 00:40:48 145.980
ISS 29 Mar 00:34:28 00:37:39 48° 335° (NNW) 00:40:50 145.825
QB50P2 29 Mar 00:45:07 00:49:01 36° 290° (WNW) 00:52:53 145.880/145.840
PCSat 29 Mar 00:57:42 01:02:52 45° 246° (WSW) 01:07:59 145.827
ITUPSAT 1 29 Mar 01:02:26 01:06:53 39° 69° (ENE) 01:11:23 437.325
YUBILEINY 29 Mar 01:09:49 01:18:41 76° 79° (E) 01:27:29 435.215
POPSAT HIP 1 29 Mar 01:14:44 01:17:49 19° 294° (WNW) 01:20:47 437.405
BUGSAT 1 29 Mar 01:17:20 01:20:32 22° 293° (WNW) 01:23:39 437.445
Oscar 19 29 Mar 01:20:33 01:24:00 18° 90° (E) 01:27:37 437.125/150
UNISAT 6 29 Mar 01:22:26 01:23:56 11° 299° (WNW) 01:25:12 437.425
TISAT 1 29 Mar 01:23:39 01:26:55 21° 267° (W) 01:30:05 437.305
NANOSAT C BR1 29 Mar 01:26:05 01:28:38 15° 296° (WNW) 01:31:02 145.865
POLYITAN 1 29 Mar 01:29:55 01:32:14 14° 297° (WNW) 01:34:23 437.675
SPROUT 29 Mar 01:32:28 01:35:08 15° 270° (W) 01:37:39 437.525
SWISSCUBE 29 Mar 01:50:14 01:55:02 67° 259° (WSW) 01:59:51 437.505
BEESAT 29 Mar 01:53:20 01:58:06 67° 259° (WSW) 02:02:54 436.000
RS-15 29 Mar 02:04:15 02:14:10 34° 26° (NNE) 02:24:38 29.354- 29.394
KKS-1 29 Mar 02:11:38 02:15:42 37° 70° (ENE) 02:19:49 437.445
ISS 29 Mar 02:11:58 02:14:35 22° 355° (N) 02:17:11 145.825
SO-50 29 Mar 02:20:48 02:24:12 18° 34° (NE) 02:27:42 436.795
ITAMSAT 1 29 Mar 02:24:20 02:28:20 23° 92° (E) 02:32:27 435.822/435.867
ITUPSAT 1 29 Mar 02:40:57 02:44:56 25° 267° (W) 02:48:51 437.325
STARS 29 Mar 02:44:47 02:49:02 53° 72° (ENE) 02:53:20 437.465
Oscar 19 29 Mar 02:58:44 03:03:49 59° 288° (WNW) 03:08:55 437.125/150
YUBILEINY 29 Mar 03:07:55 03:14:43 25° 279° (W) 03:21:09 435.215
Gurwin Techsat 1B 29 Mar 03:09:17 03:14:25 48° 99° (E) 03:19:34 435.225
M-CUBED/EXP-1 PRIME 29 Mar 03:40:18 03:42:14 13° 54° (NE) 03:44:24 437.505
MOZHAYETS 4 29 Mar 03:43:22 03:46:50 22° 65° (ENE) 03:50:25
ISS 29 Mar 03:48:50 03:51:40 27° 15° (NNE) 03:54:32 145.825
KKS-1 29 Mar 03:48:59 03:52:30 22° 267° (W) 03:55:57 437.445
AO-7 29 Mar 03:50:10 03:56:23 24° 90° (E) 04:02:54 29.400- 29.500
AIST 1 29 Mar 03:51:15 03:54:56 27° 90° (E) 03:58:41
O/OREOS (USA 219) 29 Mar 03:53:11 03:57:06 29° 105° (ESE) 04:01:06 437.305
JAS-2 29 Mar 04:00:06 04:06:14 26° 87° (E) 04:12:13 435.910
SO-50 29 Mar 04:00:32 04:05:31 87° 55° (NE) 04:10:27 436.795
ITAMSAT 1 29 Mar 04:03:09 04:08:08 47° 290° (WNW) 04:13:04 435.822/435.867
HORYU 2 29 Mar 04:13:45 04:18:06 47° 99° (E) 04:22:28 437.375
RS-15 29 Mar 04:17:03 04:28:35 83° 54° (NE) 04:40:37 29.354- 29.394
STARS 29 Mar 04:23:13 04:25:54 15° 270° (W) 04:28:26 437.465
AUBIESAT-1 29 Mar 04:48:29 04:52:25 52° 67° (ENE) 04:56:45 437.475
Gurwin Techsat 1B 29 Mar 04:49:51 04:54:09 25° 296° (WNW) 04:58:20 435.225
M-CUBED/EXP-1 PRIME 29 Mar 05:12:28 05:16:29 77° 252° (WSW) 05:20:54 437.505
MOZHAYETS 4 29 Mar 05:19:25 05:23:49 43° 262° (W) 05:28:16
ISS 29 Mar 05:25:06 05:28:20 73° 215° (SW) 05:31:32 145.825
GONETS M04 29 Mar 05:27:32 05:34:33 27° 62° (ENE) 05:41:49
AIST 1 29 Mar 05:28:42 05:32:33 28° 287° (WNW) 05:36:21
CUBESAT XI-V 29 Mar 05:29:03 05:32:36 22° 66° (ENE) 05:36:16 437.345
O/OREOS (USA 219) 29 Mar 05:32:19 05:36:29 32° 303° (WNW) 05:40:37 437.305
AO-7 29 Mar 05:41:50 05:50:09 79° 291° (WNW) 05:58:25 29.400- 29.500
SO-50 29 Mar 05:43:04 05:45:28 13° 251° (WSW) 05:47:37 436.795
JAS-2 29 Mar 05:44:12 05:52:01 70° 288° (WNW) 05:59:12 435.910
HORYU 2 29 Mar 05:51:12 05:54:27 19° 296° (WNW) 05:57:37 437.375
STRAND 1 29 Mar 06:05:15 06:09:41 31° 66° (ENE) 06:14:13 437.568
VERMONT LUNAR 29 Mar 06:19:10 06:21:57 25° 161° (SSE) 06:24:46 437.305
CUTE-I 29 Mar 06:21:20 06:25:30 24° 92° (E) 06:29:46 437.470
Cubesat XI-IV 29 Mar 06:21:22 06:25:35 24° 92° (E) 06:29:53 437.490
AUBIESAT-1 29 Mar 06:25:11 06:27:43 15° 267° (W) 06:30:12 437.475
PRISM 29 Mar 06:27:40 06:31:51 69° 74° (ENE) 06:36:04 437.425
RS-15 29 Mar 06:30:30 06:40:04 30° 254° (WSW) 06:49:30 29.354- 29.394
CUSAT 1 29 Mar 06:48:25 06:50:32 14° 70° (ENE) 06:53:07 437.405
PHONESAT 2.4 29 Mar 06:56:27 06:59:16 23° 159° (SSE) 07:02:09 2401.200-2431.200
CUBESAT XI-V 29 Mar 07:05:18 07:09:49 44° 262° (W) 07:14:19 437.345
GONETS M04 29 Mar 07:23:37 07:32:27 75° 265° (W) 07:41:14
JAS-2 29 Mar 07:30:57 07:35:45 17° 308° (NW) 07:40:05 435.910
DANDE 29 Mar 07:34:29 07:37:48 27° 75° (ENE) 07:42:04 436.750
AO-7 29 Mar 07:36:04 07:41:50 21° 311° (NW) 07:47:19 29.400- 29.500
STRAND 1 29 Mar 07:44:06 07:48:50 36° 264° (W) 07:53:33 437.568
VERMONT LUNAR 29 Mar 07:56:05 07:59:18 44° 178° (S) 08:02:31 437.305
HO-68 29 Mar 07:58:51 08:00:33 11° 82° (E) 08:02:50 435.675
CUTE-I 29 Mar 08:00:46 08:05:53 48° 290° (WNW) 08:10:57 437.470
Cubesat XI-IV 29 Mar 08:00:51 08:05:58 48° 291° (WNW) 08:11:02 437.490
PRISM 29 Mar 08:06:27 08:07:54 11° 272° (W) 08:09:06 437.425
CUSAT 1 29 Mar 08:29:18 08:33:24 62° 261° (W) 08:38:54 437.405
GOMX 1 29 Mar 08:30:30 08:32:45 14° 90° (E) 08:35:15 467.674
CANX-2 29 Mar 08:32:26 08:34:35 14° 88° (E) 08:36:57 2200.000
PHONESAT 2.4 29 Mar 08:33:51 08:37:14 44° 175° (S) 08:40:37 2401.200-2431.200
CUTE 1.7 + AOD 2 29 Mar 08:45:52 08:48:43 18° 90° (E) 08:51:43 437.475
UNISAT 6 29 Mar 09:10:54 09:11:54 11° 60° (ENE) 09:13:07 437.425
AAUSAT CUBESAT 2 29 Mar 09:11:18 09:14:22 19° 92° (E) 09:17:31 437.432
SEEDS 29 Mar 09:14:53 09:18:39 30° 95° (E) 09:22:26 437.485
DANDE 29 Mar 09:17:39 09:21:03 26° 263° (W) 09:25:15 436.750
BRITE-PL 29 Mar 09:19:03 09:23:14 71° 102° (ESE) 09:27:35 437.365/2234.400
TIGRISAT 29 Mar 09:20:15 09:22:11 13° 62° (ENE) 09:24:20 435.000
GONETS M04 29 Mar 09:23:10 09:27:55 15° 284° (WNW) 09:32:06
VERMONT LUNAR 29 Mar 09:33:40 09:36:43 32° 194° (SSW) 09:39:46 437.305
BEESAT 2 29 Mar 09:34:07 09:34:52 11° 109° (ESE) 09:35:51 435.950
Oscar 11 29 Mar 09:34:51 09:37:41 17° 90° (E) 09:40:39 145.826/435.025
COMPASS 1 29 Mar 09:37:32 09:41:35 42° 98° (E) 09:45:39 437.405
CINEMA 3 29 Mar 09:38:31 09:42:16 27° 95° (E) 09:46:13 145.822/145.860
HO-68 29 Mar 09:42:39 09:49:51 67° 103° (ESE) 09:57:01 435.675
FUNcube-1 29 Mar 09:45:50 09:47:21 12° 87° (E) 09:49:08 145.935
UWE-3 29 Mar 09:48:27 09:51:09 16° 90° (E) 09:54:05 435.000/436.395/437.385
ANTELSAT 29 Mar 09:48:36 09:52:07 26° 67° (ENE) 09:55:44 437.575/2403.000
QB50P1 29 Mar 09:50:47 09:53:06 15° 64° (ENE) 09:55:33 145.935-145.965
CUBEBUG 2 29 Mar 09:52:27 09:55:49 22° 93° (E) 09:59:22 437.445
DUCHIFAT 1 29 Mar 09:52:44 09:55:06 15° 64° (ENE) 09:57:36 145.980
DOVE 4 29 Mar 09:56:50 10:01:09 80° 101° (E) 10:05:41 437.250
ZACube-1 29 Mar 09:57:37 10:00:20 16° 90° (E) 10:03:15 437.345
QB50P2 29 Mar 10:04:37 10:07:43 21° 66° (ENE) 10:10:56 145.880/145.840
CANX-2 29 Mar 10:06:43 10:10:58 57° 287° (WNW) 10:15:12 2200.000
GOMX 1 29 Mar 10:07:08 10:11:17 54° 286° (WNW) 10:15:37 467.674
BEESAT 3 29 Mar 10:08:24 10:11:56 29° 116° (ESE) 10:15:33 437.485
PHONESAT 2.4 29 Mar 10:11:59 10:15:18 37° 192° (SSW) 10:18:36 2401.200-2431.200
CUTE 1.7 + AOD 2 29 Mar 10:20:48 10:24:56 45° 288° (WNW) 10:29:02 437.475
DELFI C3 29 Mar 10:26:57 10:30:56 46° 98° (E) 10:34:54 145.870
POPSAT HIP 1 29 Mar 10:32:33 10:36:27 38° 71° (ENE) 10:40:23 437.405
BUGSAT 1 29 Mar 10:33:17 10:36:50 28° 69° (ENE) 10:40:25 437.445
UKube-1 29 Mar 10:40:30 10:44:21 31° 96° (E) 10:48:12 .
AIST 2 29 Mar 10:42:14 10:45:22 21° 113° (ESE) 10:48:37 435.215
NANOSAT C BR1 29 Mar 10:43:03 10:47:07 49° 73° (ENE) 10:51:13 145.865
UNISAT 6 29 Mar 10:43:49 10:48:05 84° 257° (WSW) 10:52:27 437.425
AAUSAT CUBESAT 2 29 Mar 10:46:13 10:50:12 39° 289° (WNW) 10:54:07 437.432
POLYITAN 1 29 Mar 10:47:02 10:51:09 56° 74° (ENE) 10:55:19 437.675
HUMSAT D 29 Mar 10:49:38 10:53:19 28° 95° (E) 10:57:05 437.325/437.525
DX 1 29 Mar 10:50:15 10:54:22 41° 98° (E) 10:58:29 434.975-435.025
SEEDS 29 Mar 10:50:46 10:54:24 27° 292° (WNW) 10:57:58 437.485
TIGRISAT 29 Mar 10:54:14 10:58:27 67° 259° (WSW) 11:02:46 435.000
BRITE-PL 29 Mar 10:59:45 11:01:21 12° 297° (WNW) 11:02:46 437.365/2234.400
BEESAT 2 29 Mar 11:08:19 11:12:27 82° 307° (NW) 11:16:39 435.950
Oscar 11 29 Mar 11:09:57 11:14:10 47° 288° (WNW) 11:18:21 145.826/435.025
VERMONT LUNAR 29 Mar 11:12:34 11:13:52 12° 209° (SSW) 11:15:04 437.305
COMPASS 1 29 Mar 11:13:57 11:17:02 19° 294° (WNW) 11:19:59 437.405
CINEMA 3 29 Mar 11:15:37 11:19:30 30° 290° (WNW) 11:23:26 145.822/145.860
FUNcube-1 29 Mar 11:19:53 11:24:14 70° 285° (WNW) 11:28:40 145.935
UWE-3 29 Mar 11:23:46 11:28:02 51° 287° (WNW) 11:32:24 435.000/436.395/437.385
QB50P1 29 Mar 11:24:26 11:28:35 57° 260° (W) 11:32:45 145.935-145.965
ANTELSAT 29 Mar 11:25:03 11:28:51 30° 265° (W) 11:32:41 437.575/2403.000
DUCHIFAT 1 29 Mar 11:26:25 11:30:33 55° 260° (W) 11:34:42 145.980
CUBEBUG 2 29 Mar 11:28:34 11:32:40 39° 289° (WNW) 11:36:52 437.445
VELOX 1 29 Mar 11:29:26 11:33:42 47° 99° (E) 11:37:58 145.980
CUBEBUG 1 29 Mar 11:30:33 11:33:57 23° 93° (E) 11:37:27 437.445
HO-68 29 Mar 11:31:11 11:37:06 28° 302° (WNW) 11:42:51 435.675
ZACube-1 29 Mar 11:32:47 11:37:02 50° 287° (WNW) 11:41:21 437.345
AISAT 29 Mar 11:34:00 11:38:20 55° 100° (E) 11:42:40 437.250
DOVE 4 29 Mar 11:37:00 11:38:28 11° 298° (WNW) 11:39:45 437.250
50 SAT 29 Mar 11:37:44 11:41:45 64° 101° (E) 11:45:46 437.505
QB50P2 29 Mar 11:39:29 11:43:26 38° 263° (W) 11:47:24 145.880/145.840
BEESAT 3 29 Mar 11:46:12 11:49:56 32° 314° (NW) 11:53:42 437.485
PHONESAT 2.4 29 Mar 11:51:01 11:53:07 15° 207° (SSW) 11:55:10 2401.200-2431.200
ESTCUBE 1 29 Mar 12:02:56 12:07:24 57° 101° (E) 12:11:50 437.505/2401.250
DELFI C3 29 Mar 12:03:06 12:05:48 17° 295° (WNW) 12:08:21 145.870
